DateTimeUTC,F1_A11,F1_S11,BsB_S11,BsG_S11,BsR_S11,BbsB_S11,BbsG_S11,BbsR_S11,BaB_A11,BaG_A11,BaR_A11,Tu_S11,T_S11,Uu_S11,U_S11,P_S11,T1_A11
2021-10-05T13:00:00Z,00000200,21000000,,,,,,,-000.08,-000.19,-000.08,16.6,23.5,,00.0,0667.7,30.8
2021-10-05T13:01:00Z,00000200,21000000,,,,,,,-000.33,0000.11,0000.00,16.6,23.5,,00.0,0667.7,30.8
2021-10-05T13:02:00Z,00000200,21000000,,,,,,,0000.27,0000.15,0000.41,16.6,23.6,,00.0,0667.8,30.9
2021-10-05T13:03:00Z,00000200,61000000,,,,,,,0000.39,0000.05,-000.14,16.6,23.6,,00.0,0667.8,30.9
2021-10-05T13:04:00Z,00000200,41000000,-000.08,-000.28,0000.18,0000.19,0000.03,-000.16,-000.74,-000.52,-000.61,17.1,23.5,00.0,00.0,0668.8,30.9
2021-10-05T13:05:00Z,00000200,01000000,0000.58,-000.03,-000.01,0000.43,0000.20,-000.04,-000.16,-000.34,0000.23,17.2,23.5,,00.0,0668.9,30.9
2021-10-05T13:06:00Z,00000200,01000000,0000.62,-000.47,0000.30,-000.19,0000.45,0000.20,-000.29,0000.14,-000.28,17.2,23.5,,00.0,0668.9,30.9
2021-10-05T13:07:00Z,00000200,01000000,0000.06,-000.21,0000.00,0000.52,0000.16,-000.15,0000.45,-000.11,0000.37,17.2,23.5,,00.0,0668.8,30.9
2021-10-05T13:08:00Z,00000200,01000000,0000.17,-000.05,0000.30,0000.14,-000.17,-000.05,0000.16,0000.53,-000.07,17.1,23.5,00.0,00.0,0668.8,30.9
2021-10-05T13:09:00Z,00000200,01000000,0000.25,0000.07,0000.02,0000.62,0000.08,0000.09,0000.47,0000.50,0000.35,17.1,23.5,00.0,00.0,0668.8,30.9
2021-10-05T13:10:00Z,00000200,01000000,-000.08,-000.14,0000.14,0000.05,0000.06,0000.05,-000.02,0000.03,0000.13,17.0,23.5,00.0,00.0,0668.8,30.9
2021-10-05T13:11:00Z,00000200,01000000,0000.85,-000.20,-000.09,0000.56,0000.25,-000.19,-000.42,-000.62,-000.47,17.0,23.4,00.0,00.0,0668.8,30.9
2021-10-05T13:12:00Z,00000200,01000000,-000.33,0000.10,-000.12,0000.34,-000.14,-000.02,-000.43,-000.21,0000.09,16.9,23.4,,00.0,0668.7,30.8
2021-10-05T13:13:00Z,00000200,01000000,-000.16,-000.13,0000.12,-000.43,0000.18,0000.30,0000.07,0000.07,-000.10,16.9,23.4,,00.0,0668.7,30.8
2021-10-05T13:14:00Z,00000200,01000000,-000.10,0000.17,-000.01,0000.25,-000.18,-000.18,0000.52,0000.23,0000.31,16.9,23.4,00.0,00.0,0668.7,30.8
2021-10-05T13:15:00Z,00000200,01000000,-000.04,-000.09,-000.12,0000.35,0000.05,-000.23,-000.00,0000.17,-000.15,16.9,23.3,00.0,00.0,0668.7,30.8
2021-10-05T13:16:00Z,00000200,01000000,0001.36,-000.35,-000.15,0000.60,0000.01,0000.18,-000.11,0000.11,0000.74,16.9,23.4,,00.0,0668.8,30.8
2021-10-05T13:17:00Z,00000200,01000000,0000.27,-000.05,0000.27,-000.15,-000.23,-000.13,0000.56,0000.29,-000.09,17.0,23.4,,00.0,0668.8,30.9
2021-10-05T13:18:00Z,00000200,01000000,-000.47,0000.03,0000.29,0000.09,0000.01,-000.12,-000.11,0000.10,0000.04,17.1,23.4,,00.0,0668.8,30.9
2021-10-05T13:19:00Z,00000200,01000000,0000.72,-000.01,-000.05,0000.34,0000.27,-000.18,-000.09,-000.11,-000.17,17.1,23.4,00.0,00.0,0668.8,30.9
2021-10-05T13:20:00Z,00000200,01000000,-000.07,-000.19,-000.34,-000.05,0000.10,-000.23,0000.06,-000.05,0000.13,17.2,23.5,,00.0,0668.8,30.9
2021-10-05T13:21:00Z,00000200,01000000,0000.37,-000.19,-000.06,-000.12,0000.01,0000.07,-000.05,-000.09,-000.07,17.2,23.5,,00.0,0668.9,30.9
2021-10-05T13:22:00Z,00000200,01000000,-000.12,-000.20,0000.07,0000.39,0000.07,0000.04,0000.49,0000.42,0000.38,17.2,23.5,,00.0,0668.8,30.9
2021-10-05T13:23:00Z,00000200,01010000,0000.40,0000.18,-000.13,0000.91,0000.20,0000.08,0000.10,0000.22,0000.02,17.2,23.5,00.0,00.0,0668.8,30.9
2021-10-05T13:24:00Z,00000200,01000000,0000.10,-000.32,-000.16,-000.37,0000.35,0000.25,0000.22,-000.02,0000.07,17.1,23.5,00.0,00.0,0668.8,30.9
2021-10-05T13:25:00Z,00000200,01000000,0000.11,0000.13,-000.14,0000.54,0000.22,-000.11,0000.45,0000.53,0000.50,17.1,23.5,00.2,00.1,0668.8,30.9
2021-10-05T13:26:00Z,00000200,01000000,-000.20,-000.07,-000.03,0000.19,-000.10,0000.40,0000.18,-000.06,-000.21,17.0,23.4,00.2,00.1,0668.8,30.9
2021-10-05T13:27:00Z,00000200,01000000,-000.74,-000.55,0000.24,0000.01,0000.00,0000.25,0000.27,0000.06,0000.54,17.0,23.4,00.2,00.2,0668.9,30.8
2021-10-05T13:28:00Z,00000200,01000000,0000.38,-000.07,-000.09,0000.40,0000.17,-000.11,0000.84,0001.00,0000.30,17.0,23.4,00.3,00.2,0668.8,30.8
2021-10-05T13:29:00Z,00000200,01000000,0000.02,-000.25,0000.26,-000.03,0000.36,0000.04,0000.21,0000.49,0000.19,16.9,23.3,00.5,00.3,0668.8,30.8
2021-10-05T13:30:00Z,00000200,01000000,-000.16,0000.18,0000.42,0000.47,0000.36,-000.09,0000.50,0000.50,0000.35,16.9,23.3,00.6,00.4,0668.8,30.8
2021-10-05T13:31:00Z,00000200,01000000,0000.17,-000.04,0000.37,-000.48,-000.14,-000.07,0000.02,0000.48,0000.22,17.0,23.3,00.7,00.5,0668.8,30.9
2021-10-05T13:32:00Z,00000200,01000000,0000.02,-000.11,0000.16,0000.07,0000.05,0000.25,-000.08,-000.10,0000.42,17.1,23.4,00.7,00.5,0668.8,30.9
2021-10-05T13:33:00Z,00000200,01000000,0000.23,-000.23,0000.20,0000.09,0000.16,0000.15,0000.02,-000.15,-000.12,17.2,23.4,00.7,00.5,0668.8,30.9
2021-10-05T13:34:00Z,00000200,01000000,0000.17,-000.17,-000.43,0000.33,0000.10,-000.05,-000.11,-000.33,-000.21,17.3,23.5,00.6,00.4,0668.9,30.9
2021-10-05T13:35:00Z,00000200,01000000,0000.79,0000.09,-000.00,0000.06,0000.27,-000.02,-000.07,0000.11,0000.08,17.4,23.5,00.6,00.4,0668.9,30.9
2021-10-05T13:36:00Z,00000200,01000000,0000.25,0000.09,-000.28,0000.35,0000.14,-000.03,0000.20,0000.08,-000.29,17.4,23.6,00.6,00.4,0668.9,30.9
2021-10-05T13:37:00Z,00000200,01000000,0000.12,-000.29,-000.07,0000.43,0000.01,-000.01,-000.37,-000.33,-000.11,17.4,23.6,00.6,00.4,0668.9,30.9
2021-10-05T13:38:00Z,00000200,01000000,0000.26,-000.21,0000.33,-000.27,0000.19,0000.19,0000.02,0000.16,-000.14,17.3,23.5,00.5,00.4,0668.9,30.9
2021-10-05T13:39:00Z,00000200,01000000,0000.24,0000.02,0000.12,-000.14,-000.28,0000.22,-000.43,-000.75,-000.22,17.3,23.5,00.4,00.3,0668.9,30.9
2021-10-05T13:40:00Z,00000200,01000000,0000.27,-000.21,0000.13,-000.22,-000.06,0000.17,0000.14,0000.57,-000.03,17.2,23.5,00.4,00.3,0669.0,30.9
2021-10-05T13:41:00Z,00000200,01000000,-000.56,-000.11,-000.01,-000.08,0000.02,-000.19,0000.11,-000.23,0000.31,17.2,23.5,00.3,00.2,0668.9,30.9
2021-10-05T13:42:00Z,00000200,01000000,0000.67,-000.53,0000.00,0000.40,0000.35,-000.11,-000.11,0000.26,0000.08,17.1,23.5,00.4,00.2,0669.0,30.8
2021-10-05T13:43:00Z,00000200,01000000,-000.27,-000.32,0000.34,0000.81,0000.43,-000.20,0000.01,-000.43,-000.04,17.1,23.4,00.4,00.3,0669.0,30.8
2021-10-05T13:44:00Z,00000200,01000000,0000.21,-000.23,-000.18,-000.17,-000.15,-000.05,-000.21,0000.11,-000.03,17.1,23.4,00.3,00.2,0669.0,30.8
2021-10-05T13:45:00Z,00000200,01000000,0000.59,-000.34,0000.23,-000.34,-000.09,0000.06,0000.88,0000.63,0000.70,17.1,23.4,00.3,00.2,0669.0,30.8
2021-10-05T13:46:00Z,00000200,01000000,0000.41,-000.00,0000.13,0000.22,0000.09,0000.12,0000.12,0000.48,0000.08,17.1,23.4,00.4,00.3,0669.0,30.9
2021-10-05T13:47:00Z,00000200,01000000,0000.06,-000.51,0000.13,-000.20,-000.05,-000.02,0000.43,0000.09,0000.25,17.2,23.5,00.5,00.3,0669.0,30.9
2021-10-05T13:48:00Z,00000200,01000000,0000.59,-000.42,-000.20,0000.06,-000.12,0000.04,0000.04,0000.38,0000.16,17.3,23.5,00.5,00.4,0669.1,30.9
2021-10-05T13:49:00Z,00000200,01000000,-000.43,-000.44,0000.15,0000.14,0000.04,0000.05,0000.12,0000.06,0000.12,17.4,23.6,00.5,00.3,0669.1,30.9
2021-10-05T13:50:00Z,00000200,01000000,0000.63,-000.02,-000.13,0000.02,-000.24,-000.01,0000.07,-000.42,-000.38,17.4,23.6,00.5,00.3,0669.1,30.9
2021-10-05T13:51:00Z,00000200,01000000,-000.56,-000.06,-000.30,0000.39,0000.07,-000.20,-000.32,-000.47,-000.22,17.4,23.6,00.3,00.2,0669.1,30.9
2021-10-05T13:52:00Z,00000200,01000000,0000.23,-000.20,0000.17,0000.15,0000.16,0000.08,-000.20,0000.36,0000.00,17.4,23.6,00.4,00.3,0669.0,30.9
2021-10-05T13:53:00Z,00000200,01000000,0000.80,-000.11,-000.01,0000.58,0000.06,-000.09,0000.51,0000.08,0000.12,17.3,23.6,00.7,00.5,0669.1,30.9
2021-10-05T13:54:00Z,00000200,01000000,0000.35,-000.19,0000.04,0000.99,0000.19,0000.03,0000.65,0000.61,0000.43,17.3,23.6,00.7,00.5,0669.0,30.9
2021-10-05T13:55:00Z,00000200,01000000,0000.13,-000.15,-000.00,0000.22,-000.09,0000.15,0000.08,0000.25,0000.17,17.2,23.5,01.0,00.7,0669.0,30.9
2021-10-05T13:56:00Z,00000200,01000000,-000.19,0000.04,0000.23,0000.69,0000.30,-000.09,0000.20,0000.09,0000.47,17.2,23.5,01.0,00.7,0669.1,30.9
2021-10-05T13:57:00Z,00000200,41000000,,,,,,,-001.01,-000.60,-001.12,17.2,23.5,01.5,01.0,0669.2,30.9
2021-10-05T13:58:00Z,00000200,61000000,,,,,,,0000.56,0000.41,0000.66,16.9,23.6,00.7,00.4,0668.1,30.9
2021-10-05T13:59:00Z,00000200,21000000,,,,,,,0000.55,0000.40,0000.31,16.8,23.7,00.6,00.4,0668.0,30.9
